Back to catalog

STARLINK-4279

AliveCommunicationsVLEO
NORAD 53018·PAYLOAD·🇺🇸 United States

Launched Jul 7, 2022 from Cape Canaveral Space Force Station

Loading…

Next Passes (next 24 hours)

TLE

FreshSource: CelesTrak SupGP

Epoch: Sep 14, 2026, 14:24 UTC

1 53018C 22076AJ  26257.60048611  .00662100  00000+0  22410-1 0  2573
2 53018  53.1588 281.8444 0001207  83.8252   4.1040 15.29724979    13

Track STARLINK-4279 in real time with AllMySat

Download on the App Store